Regional Weather Roundup
Issued by NWS Green Bay, WI

Home | Current Version | Previous Version | Graphics & Text | Print | Product List | Glossary Off
Versions: 1 2 3 4 5 6 7 8 9 10 11 12 13 14 15 16 17 18 19 20 21 22 23 24 25 26 27 28 29 30 31 32 33 34 35 36 37 38 39 40 41 42 43 44 45 46 47 48 49 50

000
ASUS43 KGRB 282011
RWRGRB

NORTH-CENTRAL AND NORTHEAST WISCONSIN REGIONAL WEATHER ROUNDUP
NATIONAL WEATHER SERVICE GREEN BAY WI
300 PM CDT FRI APR 28 2017

WIZ005-009-010>012-018-019-282100-
NORTH CENTRAL WISCONSIN

CITY           SKY/WX    TMP DP  RH WIND       PRES   REMARKS
IRONWOOD       CLOUDY    37  29  72 SW13      29.93R
MANITOWISH WTR CLOUDY    36  27  70 W10       29.90R
ARBOR VITAE    CLOUDY    39  27  62 W9        29.90R
EAGLE RIVER    CLOUDY    38  24  59 SW10      29.90R
LAND O LAKES   CLOUDY    40  25  56 W10G17    29.90S
RHINELANDER    CLOUDY    42  28  57 W12       29.91R
PHILLIPS       CLOUDY    41  28  60 W7        29.90S
ANTIGO         MOSUNNY   41  30  63 SW7       29.92R
TOMAHAWK       CLOUDY    42  28  57 SW3       29.92R
MERRILL        CLOUDY    44  28  54 W9        29.93R
$$

WIZ013-073-282100-
NORTHEAST WISCONSIN

CITY           SKY/WX    TMP DP  RH WIND       PRES   REMARKS
IRON MOUNTAIN  CLOUDY    42  27  55 SW13      29.90R
MARINETTE      PTSUNNY   48  29  47 W9        29.93R
OCONTO         CLOUDY    49  30  47 SW7       29.92R
$$

WIZ017-030-035>037-045-282100-
CENTRAL WISCONSIN

CITY           SKY/WX    TMP DP  RH WIND       PRES   REMARKS
MEDFORD        CLOUDY    42  29  59 SW5       29.91S
WAUSAU         CLOUDY    46  31  55 SW13G21   29.91R
MOSINEE        PTSUNNY   45  30  57 VRB7      29.94R
MARSHFIELD     CLOUDY    45  29  53 W8        29.91S
WISC RAPIDS    CLOUDY    47  30  51 W6        29.93F
STEVENS POINT  CLOUDY    44  29  56 W6        29.93F
WAUPACA        MOSUNNY   51  32  47 SW7       29.93F
SHAWANO        CLOUDY    50  30  45 W9        29.93R
CLINTONVILLE   MOSUNNY   50  30  46 SW13G18   29.93R
WAUTOMA        PTSUNNY   51  33  50 VRB7      29.92F
$$

WIZ038-039-048-051-282100-
FOX VALLEY

CITY           SKY/WX    TMP DP  RH WIND       PRES   REMARKS
NWS GREEN BAY  CLOUDY    50  36  58 SW8       29.93S
APPLETON       PTSUNNY   48  32  53 SW13      29.92R
OSHKOSH        CLOUDY    50  37  61 SW5       29.92F
FOND DU LAC    CLOUDY    50  35  56 VRB3      29.92F
$$

WIZ022-050-052-282100-
EAST CENTRAL WISCONSIN

CITY           SKY/WX    TMP DP  RH WIND       PRES   REMARKS
EPHRAIM        FAIR      45  29  55 SW9       29.93S
WASHINGTON ISL CLOUDY    42  29  59 W8        29.93S
STURGEON BAY   CLOUDY    48  31  51 SW9G17    29.94S
MANITOWOC      PTSUNNY   44  34  67 S9        29.94F
SHEBOYGAN      CLOUDY    48  42  80 SE7       29.92F
$$

LMZ563-521-522-541>543-282100-
LAKESHORE

STATION/POSITION TIME  TEMP    WIND        PRES    VSBY  WAVE
                       AIR SEA DIR/SP/G                  HT/PER
                 (UTC) (F)     (DEG/KT/KT) (MB)    (MI)  (FT/S)
SHEBOYGAN LKSHOR 2000   40     160/ 13/ 15 1014.1F
KEWAUNEE LKSHORE 1948   41     160/ 15/ 17 1013.6S
NORTHPORT PIER   1940   45     190/  5/ 12 1013.5S
N MID LAKE BUOY  1950   38 37  190/ 10/ 14 1015.4R         3/ 6
CHAMBERS ISLAND  1940   44     150/  6/ 14 1013.2R
MENOMINEE LKSHOR 1948   44     160/ 11/ 16 1012.5R
$$



USA.gov is the U.S. government's official web portal to all federal, state and local government web resources and services.